Wind_Speed
23 23 24 24 24 25 26 26 26 26 24 22 23 23 23 23 23 24 22 21 22 22 23 23 23 23 24 23 23 23 23 23 22 21 21 21 21 20 19 20 20 19 20 21
23 23 24 24 24 25 25 25 25 25 23 22 23 24 23 22 23 24 24 23 22 23 24 24 23 24 24 25 24 24 23 23 23 23 22 22 22 21 21 21 21 21 21 21
23 23 24 25 25 25 25 25 25 25 24 23 24 24 23 23 23 23 24 25 24 24 24 25 25 25 26 25 24 24 24 24 24 24 23 23 23 22 22 21 21 21 21 22
22 22 24 23 23 24 25 25 26 26 25 24 24 24 24 24 24 24 24 24 25 25 25 25 26 27 27 26 24 24 25 25 25 25 24 24 23 23 23 22 22 22 22 23
22 23 22 22 22 23 24 24 24 25 24 24 24 25 25 25 24 25 25 25 26 26 26 26 26 27 27 27 26 25 25 25 26 26 25 25 25 24 24 24 24 24 24 24
22 23 22 21 22 23 23 24 23 23 23 24 24 24 24 25 25 25 25 25 25 26 26 26 25 26 26 27 27 26 26 27 26 25 26 26 26 26 26 25 25 26 26 26
23 23 22 23 23 23 23 23 23 23 22 22 23 23 23 24 24 24 25 25 25 25 25 25 26 26 25 26 26 25 26 26 26 25 25 26 27 27 27 27 27 27 27 28
23 22 23 23 24 23 23 23 23 23 23 23 23 24 24 23 24 24 24 25 25 24 24 25 25 25 25 25 25 26 25 25 26 26 26 27 27 27 27 28 28 29 29 30
23 23 23 23 23 23 23 23 23 23 23 23 23 23 23 23 23 24 25 25 25 24 23 23 23 24 24 24 24 25 25 25 25 26 26 26 27 27 27 28 28 29 30 30
21 21 22 22 22 22 23 23 23 22 23 23 23 24 23 23 24 24 25 24 24 24 23 22 21 22 23 24 25 25 25 25 26 26 26 27 27 27 27 27 28 28 29 30
21 20 21 22 22 21 22 22 21 22 22 22 22 22 22 24 24 24 23 24 24 23 22 22 22 22 22 23 24 24 25 26 27 27 28 28 27 27 27 27 27 28 29 30
20 21 20 20 20 19 20 20 21 22 22 22 23 22 22 22 21 22 23 23 24 24 23 23 22 23 23 23 23 24 25 26 26 27 28 27 27 28 28 28 28 29 30 30
20 20 20 19 19 19 19 20 21 21 22 21 22 22 22 22 22 22 21 21 21 23 24 24 24 24 24 24 24 24 25 25 26 26 26 27 27 28 28 28 28 29 29 28
21 21 20 20 20 20 19 20 20 20 20 20 20 21 22 22 22 23 23 21 21 22 23 24 24 24 24 24 25 25 25 26 26 27 27 27 27 27 28 28 28 27 28 27
21 21 21 21 20 20 20 19 19 19 19 20 20 21 21 22 22 23 23 23 22 22 21 22 22 23 23 24 25 25 26 26 26 26 26 25 25 25 26 26 26 27 27 28
22 21 22 21 21 20 20 20 20 20 20 20 21 21 22 22 22 22 22 23 23 22 22 22 22 22 22 23 24 24 24 24 24 25 25 25 25 25 25 26 26 27 27 27
22 21 21 21 21 20 20 20 20 20 21 21 21 22 22 21 20 20 20 21 21 22 22 22 22 23 23 23 23 23 24 24 24 24 24 25 26 26 26 27 27 27 27 27
21 21 20 20 20 20 20 20 19 20 20 21 21 20 20 20 19 19 19 20 21 21 21 22 23 23 23 23 22 23 23 24 24 24 24 25 25 26 27 27 26 26 26 27
20 20 19 19 19 19 19 19 20 20 20 20 20 20 20 20 19 19 20 21 21 20 21 22 22 22 22 23 23 23 24 25 25 25 25 25 26 26 26 27 26 27 27 27
18 18 18 18 17 17 17 17 18 19 19 19 19 19 19 19 19 20 21 21 21 21 22 23 23 23 23 23 22 23 23 23 24 24 24 24 25 26 26 26 26 27 27 27
18 18 18 17 17 17 17 17 17 17 18 18 18 18 19 19 20 21 21 21 21 21 22 22 22 23 23 23 23 23 23 23 23 23 24 24 25 25 25 25 25 26 26 26
16 16 17 17 16 16 17 17 17 17 17 18 18 19 19 19 20 21 21 22 22 22 22 22 22 23 23 23 23 22 22 22 23 23 23 23 24 24 24 23 24 25 25 25
15 15 15 15 15 15 15 16 16 16 16 17 18 19 19 20 20 20 20 21 21 22 22 22 23 23 22 22 22 22 21 21 22 22 22 22 23 23 23 23 24 25 25 26
14 14 14 14 14 14 15 15 15 15 15 16 16 17 17 18 19 19 20 20 20 21 22 22 22 21 21 21 20 21 21 21 21 21 21 22 22 22 23 23 24 24 25 25
14 14 14 14 13 14 14 14 13 13 13 14 14 15 16 17 17 18 19 19 19 19 20 20 20 19 19 19 19 20 20 21 20 20 20 21 21 21 22 22 23 23 24 24
13 13 13 12 12 12 12 12 12 12 13 14 14 15 16 16 16 17 17 17 17 17 18 17 17 18 18 18 18 18 19 19 20 20 21 21 21 21 21 22 22 22 23 23
12 12 12 12 11 11 11 12 12 12 13 14 14 15 15 15 16 16 16 16 16 17 17 17 17 18 18 18 18 18 18 18 18 19 19 19 20 20 20 20 21 21 21 22
Wind_Direction
260 260 259 259 259 259 259 261 263 264 264 262 261 262 262 261 260 262 263 261 259 257 260 263 264 264 263 263 262 260 261 261 263 265 267 267 266 267 268 269 269 267 269 271
260 259 259 258 258 259 259 260 261 263 263 263 261 262 263 264 262 260 261 262 262 263 263 263 263 265 264 263 260 258 259 262 262 264 264 263 264 265 266 268 269 269 269 268
262 261 260 258 258 260 261 260 260 261 262 261 261 262 264 265 264 262 263 262 264 267 265 264 264 263 262 260 262 259 261 262 260 263 263 261 262 264 266 268 269 270 268 270
264 264 262 263 260 261 262 261 260 262 263 262 260 260 261 263 264 264 265 264 266 266 266 266 264 263 261 261 261 259 260 260 258 260 260 260 261 263 266 268 269 269 268 270
267 266 265 263 263 264 264 264 262 262 262 263 262 262 261 262 263 265 266 267 267 266 266 266 265 261 259 261 262 262 259 259 258 257 258 259 261 264 266 268 269 268 267 268
267 267 267 263 263 263 263 264 263 262 261 263 262 263 264 263 262 264 266 266 267 266 267 267 267 263 261 262 262 261 261 262 260 259 258 259 261 263 265 268 270 270 270 269
268 268 268 265 264 264 265 266 264 262 262 262 262 263 263 262 261 262 265 265 267 265 265 267 267 263 262 264 264 265 266 265 262 262 261 261 263 264 265 268 271 271 271 270
268 270 269 267 264 264 265 266 266 264 262 260 261 261 261 260 260 262 264 266 267 268 268 267 266 264 262 264 265 265 264 263 263 263 263 263 265 266 267 269 270 270 271 270
269 269 269 268 266 264 264 263 264 263 260 260 261 260 260 258 259 261 263 265 266 268 269 268 268 266 264 265 265 264 263 263 263 263 262 263 264 266 268 270 271 271 272 272
269 268 268 268 268 267 265 264 263 260 259 259 260 260 259 258 260 261 263 264 265 267 269 270 270 269 268 268 268 269 266 264 264 264 262 263 265 266 267 269 271 272 273 273
266 267 267 266 267 267 264 262 263 261 259 260 260 258 258 258 261 261 263 265 266 267 267 267 267 267 269 270 270 269 268 267 265 264 262 263 264 266 267 269 271 272 274 275
265 266 268 268 267 266 263 260 261 262 262 263 263 263 263 262 263 264 263 264 265 265 265 265 267 269 271 271 271 269 269 267 265 265 262 261 263 265 268 270 271 273 274 275
266 266 267 268 267 265 266 265 263 263 264 263 262 261 263 265 266 265 265 268 268 267 266 267 268 270 271 271 272 271 271 269 265 264 263 264 266 266 268 271 272 273 273 274
265 265 267 267 267 267 268 266 263 263 264 264 264 264 265 267 267 267 267 269 268 269 269 269 270 270 272 272 273 272 271 270 269 268 267 268 267 267 269 271 273 274 275 275
263 264 266 269 269 266 265 263 262 263 264 266 266 266 268 268 268 268 267 268 268 270 271 272 272 271 271 273 273 273 272 271 270 270 271 268 267 268 270 272 274 275 276 276
262 262 265 269 270 268 265 263 262 262 264 266 267 267 269 270 269 268 267 269 270 271 273 274 275 273 272 273 274 274 273 273 273 273 272 269 269 271 273 275 276 276 277 278
261 261 264 268 269 266 266 265 264 264 266 267 269 269 269 271 272 271 270 270 270 270 272 274 275 275 275 274 274 273 273 272 272 272 272 272 271 272 273 275 276 275 277 279
263 261 262 264 267 267 266 265 265 265 265 267 270 270 269 270 271 270 271 272 272 270 271 274 275 276 277 276 274 273 273 271 271 272 273 273 273 274 275 276 275 275 277 278
262 263 263 263 266 268 267 266 265 266 268 269 268 269 269 269 269 270 273 275 276 275 274 276 277 277 277 277 275 274 273 271 272 273 273 274 276 277 277 276 275 276 277 276
261 263 264 265 267 267 267 268 269 270 270 269 269 269 270 270 271 273 275 277 277 277 277 278 277 275 276 277 276 274 273 272 273 274 275 275 276 278 279 277 275 276 277 276
258 260 263 265 266 267 268 268 269 271 272 271 271 272 272 271 272 274 275 277 277 279 281 281 279 277 277 277 277 276 274 273 274 275 275 275 278 279 279 278 277 278 280 280
259 262 264 266 267 267 268 269 271 272 274 274 273 272 273 273 274 275 276 278 279 280 282 282 281 279 277 276 275 276 275 273 273 274 275 276 278 279 278 278 278 280 282 282
262 264 264 266 268 268 267 269 272 273 273 275 274 274 275 276 277 278 280 280 280 281 282 282 282 280 277 277 275 273 273 273 273 275 275 275 277 278 278 279 281 282 283 283
263 263 265 268 270 270 270 270 273 275 274 274 274 275 277 279 281 282 284 282 279 280 282 283 281 279 277 278 277 273 273 275 276 276 275 275 278 278 279 279 282 283 285 286
261 264 270 273 274 274 274 274 274 275 276 276 279 282 284 287 287 287 287 285 282 281 282 281 279 278 280 282 281 280 279 277 277 277 277 279 279 279 281 282 283 284 285 287
260 265 270 275 275 274 273 276 278 279 279 282 284 286 289 290 291 291 290 288 285 282 281 281 280 281 283 286 288 289 287 283 279 279 281 282 282 281 282 283 284 285 287 287
259 264 270 274 272 272 275 279 282 283 284 284 287 289 289 289 289 289 291 290 288 287 286 283 282 283 287 290 291 290 289 286 283 281 282 282 283 282 282 283 286 288 289 291
Height
5788 5789 5790 5791 5792 5793 5794 5794 5795 5797 5799 5801 5801 5803 5804 5805 5806 5807 5808 5808 5809 5810 5811 5811 5811 5811 5811 5812 5813 5813 5814 5815 5815 5816 5816 5816 5816 5816 5816 5817 5817 5817 5818 5818
5782 5783 5784 5785 5786 5787 5788 5789 5789 5791 5793 5795 5795 5797 5798 5799 5800 5801 5802 5802 5803 5804 5804 5804 5805 5805 5805 5805 5806 5806 5807 5808 5809 5809 5810 5810 5811 5811 5811 5811 5812 5812 5812 5812
5776 5777 5777 5779 5781 5781 5782 5783 5784 5785 5788 5788 5789 5791 5792 5793 5794 5794 5795 5796 5797 5797 5797 5798 5798 5798 5798 5798 5798 5799 5800 5801 5802 5803 5803 5804 5804 5805 5806 5806 5806 5806 5807 5807
5770 5772 5772 5775 5774 5775 5776 5777 5778 5779 5781 5781 5783 5784 5785 5786 5787 5788 5789 5789 5790 5790 5790 5790 5790 5790 5790 5790 5790 5791 5793 5794 5795 5796 5796 5797 5798 5799 5799 5800 5800 5800 5800 5801
5765 5765 5766 5768 5768 5769 5769 5770 5772 5773 5774 5775 5776 5777 5778 5779 5780 5781 5781 5782 5782 5782 5782 5782 5782 5782 5783 5783 5784 5784 5785 5786 5787 5788 5789 5790 5791 5792 5792 5793 5793 5794 5794 5794
5759 5759 5760 5763 5762 5762 5764 5764 5766 5766 5767 5768 5769 5771 5772 5772 5773 5774 5774 5774 5775 5775 5775 5775 5775 5775 5775 5776 5777 5777 5779 5779 5780 5781 5782 5783 5784 5784 5785 5785 5786 5786 5787 5787
5753 5753 5754 5756 5756 5756 5758 5760 5759 5760 5761 5761 5763 5764 5765 5765 5766 5766 5767 5767 5767 5767 5767 5768 5768 5768 5768 5769 5769 5770 5771 5772 5772 5773 5774 5775 5776 5776 5777 5777 5778 5779 5779 5779
5747 5748 5750 5749 5749 5751 5751 5752 5752 5753 5754 5755 5756 5756 5757 5758 5758 5759 5760 5760 5760 5760 5760 5760 5760 5761 5761 5762 5762 5763 5763 5764 5765 5766 5767 5767 5768 5769 5769 5769 5770 5770 5771 5771
5742 5744 5743 5742 5743 5743 5744 5745 5745 5746 5747 5748 5749 5749 5750 5750 5751 5752 5753 5753 5753 5753 5753 5753 5753 5754 5754 5755 5755 5755 5756 5756 5757 5758 5759 5760 5760 5761 5761 5761 5761 5761 5761 5762
5735 5736 5736 5736 5736 5736 5737 5737 5738 5739 5740 5740 5741 5742 5742 5743 5744 5745 5745 5746 5746 5746 5747 5747 5747 5747 5747 5747 5748 5748 5748 5749 5750 5750 5751 5752 5752 5753 5753 5753 5753 5753 5753 5753
5729 5729 5730 5730 5730 5730 5730 5731 5731 5732 5733 5733 5734 5735 5735 5735 5736 5737 5738 5739 5739 5739 5740 5740 5740 5741 5740 5740 5740 5740 5740 5741 5741 5742 5743 5744 5744 5744 5744 5745 5745 5745 5745 5745
5723 5723 5724 5724 5723 5723 5723 5724 5725 5725 5726 5726 5727 5728 5728 5728 5728 5729 5730 5731 5732 5732 5732 5733 5733 5733 5733 5733 5733 5733 5733 5732 5732 5733 5733 5734 5736 5736 5736 5736 5736 5736 5736 5736
5717 5717 5717 5717 5717 5717 5717 5718 5718 5719 5719 5720 5720 5721 5721 5722 5722 5722 5723 5723 5724 5724 5725 5725 5725 5726 5726 5725 5725 5725 5725 5724 5725 5725 5725 5727 5728 5728 5728 5727 5727 5727 5727 5726
5710 5710 5711 5711 5711 5711 5711 5712 5712 5713 5713 5713 5714 5714 5714 5715 5715 5715 5716 5716 5716 5717 5717 5717 5718 5718 5718 5717 5717 5717 5717 5717 5717 5717 5718 5718 5719 5719 5719 5719 5719 5718 5718 5718
5703 5704 5704 5704 5705 5705 5705 5705 5706 5706 5707 5707 5707 5707 5707 5708 5708 5708 5708 5709 5709 5710 5710 5710 5710 5710 5710 5710 5709 5709 5709 5709 5709 5709 5709 5710 5710 5710 5710 5710 5710 5710 5710 5709
5697 5697 5698 5698 5698 5698 5699 5699 5700 5700 5700 5701 5701 5701 5701 5701 5700 5701 5701 5702 5702 5702 5703 5702 5702 5702 5702 5702 5702 5701 5701 5701 5701 5701 5702 5702 5702 5702 5702 5702 5702 5702 5701 5701
5690 5691 5691 5691 5691 5692 5693 5693 5693 5694 5694 5694 5694 5694 5694 5694 5694 5694 5695 5695 5695 5695 5695 5695 5695 5695 5695 5694 5694 5694 5694 5694 5694 5694 5694 5694 5694 5694 5694 5694 5693 5693 5693 5692
5684 5684 5685 5685 5685 5686 5686 5686 5687 5687 5687 5687 5688 5688 5688 5688 5688 5688 5688 5688 5688 5688 5688 5688 5688 5688 5687 5687 5687 5687 5687 5687 5687 5687 5686 5686 5686 5686 5686 5685 5685 5684 5684 5683
5678 5679 5679 5679 5679 5680 5680 5680 5680 5680 5681 5681 5681 5682 5682 5682 5682 5682 5682 5682 5682 5681 5681 5681 5681 5680 5680 5680 5679 5679 5679 5679 5679 5679 5679 5678 5678 5678 5677 5677 5676 5675 5675 5674
5672 5673 5673 5674 5674 5674 5674 5674 5674 5674 5674 5674 5675 5675 5676 5676 5676 5676 5676 5676 5675 5675 5675 5674 5674 5673 5673 5672 5671 5671 5671 5671 5671 5671 5671 5670 5670 5669 5668 5668 5667 5666 5665 5665
5667 5668 5668 5668 5669 5669 5668 5668 5668 5668 5668 5669 5669 5669 5669 5670 5670 5670 5670 5670 5669 5668 5668 5666 5666 5665 5665 5664 5664 5664 5663 5663 5663 5663 5663 5662 5662 5661 5660 5659 5659 5658 5657 5656
5663 5663 5663 5663 5663 5663 5663 5663 5663 5663 5663 5663 5663 5663 5663 5664 5664 5663 5663 5663 5662 5661 5660 5659 5659 5658 5657 5656 5656 5656 5655 5655 5655 5655 5655 5654 5654 5653 5653 5652 5651 5650 5649 5648
5658 5658 5658 5658 5658 5658 5658 5658 5658 5657 5657 5657 5657 5658 5658 5657 5657 5657 5657 5656 5655 5654 5653 5652 5651 5650 5649 5648 5648 5648 5648 5648 5648 5647 5647 5647 5646 5646 5645 5644 5643 5642 5642 5641
5654 5654 5654 5654 5654 5654 5653 5653 5653 5653 5653 5652 5652 5652 5652 5651 5651 5650 5650 5649 5648 5647 5646 5645 5644 5643 5642 5641 5640 5640 5640 5640 5640 5640 5639 5639 5639 5638 5637 5637 5636 5635 5634 5633
5650 5650 5650 5649 5649 5649 5649 5649 5649 5648 5648 5648 5647 5647 5646 5646 5645 5644 5643 5643 5642 5641 5640 5639 5638 5637 5636 5635 5634 5634 5633 5633 5633 5633 5632 5632 5631 5631 5630 5629 5628 5627 5626 5625
5645 5646 5645 5645 5645 5644 5644 5644 5644 5644 5644 5644 5643 5643 5642 5641 5640 5639 5638 5637 5636 5635 5634 5633 5632 5631 5630 5630 5629 5628 5627 5626 5626 5625 5625 5624 5624 5623 5623 5622 5621 5620 5619 5618
5641 5641 5641 5641 5641 5641 5641 5641 5641 5640 5640 5640 5639 5639 5638 5637 5635 5634 5633 5632 5631 5630 5629 5628 5627 5626 5625 5624 5623 5622 5621 5620 5619 5618 5618 5617 5617 5616 5615 5615 5614 5613 5612 5611